Weather History for MMLP - January, 2014

Change the Weather History Date:

Wednesday, January 1, 2014

  Actual Average Record
Temperature  
Mean Temperature 70 °F -  
Max Temperature 79 °F 75 °F 86 °F (2006)
Min Temperature 60 °F 52 °F 42 °F (2007)
Cooling Degree Days 6    
Growing Degree Days 20 (Base 50)    
Moisture  
Dew Point 49 °F    
Average Humidity 55    
Maximum Humidity 87    
Minimum Humidity 23    
Precipitation  
Precipitation 0.00 in - - ()
Sea Level Pressure  
Sea Level Pressure 30.07 in    
Wind  
Wind Speed 5 mph ()    
Max Wind Speed 16 mph    
Max Gust Speed -    
Visibility 10.7 miles    
Events      
Averages and records for this station are not official NWS values.
T = Trace of Precipitation, MM = Missing Value Source: Averaged Metar Reports

Daily Weather History Graph

Daily Weather History Graph

Search for Another Location

Airport or City:

Trip Planner

Search our weather history database for the weather conditions in past years. The results will help you decide how hot, cold, wet, or windy it might be!

Date:

Astronomy

Jan. 01, 2014 Rise Set
Actual Time 7:04 AM MST 5:45 PM MST
Civil Twilight 6:39 AM MST 6:10 PM MST
Nautical Twilight 6:11 AM MST 6:38 PM MST
Astronomical Twilight 5:43 AM MST 7:06 PM MST
Moon 7:05 AM MST (1/1) 6:26 PM MST (1/1)
Length of Visible Light 11h 30m
Length of Day
10h 41m
New Moon, 0% of the Moon is Illuminated
Jan 1
New Moon
Jan 7
First Quarter
Jan 15
Full
Jan 23
Last Quarter
Jan 30
New

Hourly Weather History & Observations

Time (MST) Temp. Dew Point Humidity Pressure Visibility Wind Dir Wind Speed Gust Speed Precip Events Conditions
4:50 AM 62 °F 56 °F 77% 30.02 in 2 mi NE 2.2 mph - -  
5:55 AM 48.2 °F 44.6 °F 87% 30.04 in 8.0 mi Calm Calm - N/A   Clear
7:42 AM 48.2 °F 44.6 °F 87% 30.20 in 10.0 mi South 4.6 mph - N/A   Clear
7:50 AM 58 °F 54 °F 81% 30.06 in 12 mi NE 2.2 mph - -  
8:44 AM 57.2 °F 50.0 °F 77% 30.09 in 10.0 mi South 4.6 mph - N/A   Clear
9:44 AM 68.0 °F 53.6 °F 60% 30.09 in 10.0 mi NNE 3.5 mph - N/A   Clear
10:40 AM 71.6 °F 48.2 °F 43% 30.22 in 10.0 mi North 10.4 mph - N/A   Clear
10:50 AM 77 °F 47 °F 24% 30.08 in 19 mi NNE 6.7 mph - -  
11:44 AM 75.2 °F 39.2 °F 27% 30.05 in 12.0 mi North 11.5 mph - N/A   Clear
12:45 PM 75.2 °F 44.6 °F 34% 30.01 in 12.0 mi NNW 11.5 mph - N/A   Clear
1:41 PM 75.2 °F 44.6 °F 34% 30.19 in 12.0 mi NNW 13.8 mph - N/A   Clear
1:50 PM 79 °F 48 °F 23% 29.99 in 19 mi NNE 6.7 mph - -  
2:40 PM 75.2 °F 46.4 °F 36% 29.97 in 12.0 mi North 10.4 mph - N/A   Clear
3:40 PM 75.2 °F 44.6 °F 34% 29.96 in 12.0 mi North 16.1 mph - N/A   Clear
4:40 PM 73.4 °F 44.6 °F 36% 30.11 in 12.0 mi North 11.5 mph - N/A   Clear
5:40 PM 69.8 °F 51.8 °F 53% 29.97 in 12.0 mi NE 8.1 mph - N/A   Clear
6:42 PM 66.2 °F 51.8 °F 60% 29.99 in 10.0 mi North 4.6 mph - N/A   Clear
7:40 PM 64.4 °F 53.6 °F 68% 30.14 in 10.0 mi NNE 6.9 mph - N/A   Clear
7:50 PM 67 °F 56 °F 61% 30.04 in 2 mi North 4.5 mph - -  
8:40 PM 62.6 °F 53.6 °F 72% 30.02 in 10.0 mi NNE 4.6 mph - N/A   Clear
9:40 PM 62.6 °F 53.6 °F 72% 30.03 in 10.0 mi Calm Calm - N/A   Clear
10:40 PM 60.8 °F 51.8 °F 72% 30.17 in 10.0 mi NE 4.6 mph - N/A   Clear